Regional Weather Roundup
Issued by NWS Upton, NY

Current Version | Previous Version | Text Only | Print | Product List | Glossary On
Versions: 1 2 3 4 5 6 7 8 9 10 11 12 13 14 15 16 17 18 19 20 21 22 23 24 25 26 27 28 29 30 31 32 33 34 35 36 37 38 39 40 41 42 43 44 45 46 47 48 49 50
000 ASUS41 KOKX 220307 RWROKX REGIONAL WEATHER ROUNDUP NATIONAL WEATHER SERVICE NEW YORK NY 1100 PM EDT TUE MAR 21 2017 NOTE: "FAIR" INDICATES FEW OR NO CLOUDS BELOW 12,000 FEET WITH NO SIGNIFICANT WEATHER AND/OR OBSTRUCTIONS TO VISIBILITY. NYZ071-072-176-178-NJZ106-104-220400- NEW YORK CITY METRO AREA CITY SKY/WX TMP DP RH WIND PRES REMARKS Central Park CLOUDY 53 28 38 NW8 29.89S Wall St Helipt CLOUDY 52 36 54 CALM 29.88S LaGuardia APRT CLOUDY 53 31 42 NW10 29.86S Kennedy INTL CLOUDY 54 36 50 W9 29.87F Breezy Point N/A 46 N/A N/A W5 N/A Newark/Liberty LGT RAIN 53 35 50 W6 29.86F Teterboro PTCLDY 52 29 41 NW8 29.87R $$ NYZ177-179-078>081-220400- LONG ISLAND NEW YORK CITY SKY/WX TMP DP RH WIND PRES REMARKS Jones Beach N/A 46 N/A N/A W3 N/A Matinecock PT NOT AVBL Farmingdale CLOUDY 48 36 63 CALM 29.86F MacArthur/ISP MOCLDY 43 36 76 N3 29.86S Shirley MOCLDY 42 35 76 NW3 29.87S Westhampton CLOUDY 36 31 82 CALM 29.87F East Hampton N/A 45 30 55 NW5 29.86R Montauk N/A 46 34 62 W7 29.86R $$ NYZ052-065-067-220400- HUDSON VALLEY CITY SKY/WX TMP DP RH WIND PRES REMARKS White Plains CLOUDY 45 21 38 NW9 29.85F Newburgh CLEAR 37 25 60 CALM 29.88S Montgomery CLOUDY 36 23 59 CALM 29.86F Poughkeepsie CLOUDY 35 23 61 CALM 29.86F Albany MOCLDY 34 26 72 VRB3 29.83F $$ NJZ001-105-106-008-010-013-015-019>022-104-220400- NEW JERSEY CITY SKY/WX TMP DP RH WIND PRES REMARKS Newark/Liberty LGT RAIN 53 35 50 W6 29.86F Teterboro PTCLDY 52 29 41 NW8 29.87R Caldwell MOCLDY 44 31 60 NE3 29.88S Somerville CLOUDY 39 34 82 S3 29.85F Linden CLOUDY 51 35 54 CALM 29.87S Sussex CLOUDY 38 29 70 CALM 29.87F Andover N/A 37 32 82 NE3 29.87F Trenton CLOUDY 50 35 56 W3 29.86F Millville PTCLDY 38 36 92 CALM 29.91S Atlantic City CLEAR 47 36 65 SW6 29.90F Wrightstown CLOUDY 47 36 65 SW7 29.85F Toms River PTCLDY 38 33 82 SW3 29.89F Belmar CLOUDY N/A N/A N/A SW5 29.88F $$ PAZ047>061-062-071-220400- EASTERN PENNSYLVANIA CITY SKY/WX TMP DP RH WIND PRES REMARKS Philadelphia CLOUDY 51 38 60 SW8 29.89F Allentown PTCLDY 44 34 67 CALM 29.87S Scranton PTCLDY 39 21 48 CALM 29.87S $$ CTZ002-004>006-009-010-012-RIZ004-006-007-MAZ004-011-015-220400- SOUTHERN NEW ENGLAND IN CT CITY SKY/WX TMP DP RH WIND PRES REMARKS Bradley INTL PTCLDY 42 25 50 W9 29.86S Hartford PTCLDY 44 26 49 N5 29.86F Danbury MOCLDY 37 28 70 CALM 29.88S Wtrbury/Oxford CLOUDY 39 27 60 CALM 29.88S Bridgeport PTCLDY 50 22 33 N9 29.86S Meriden CLOUDY 40 29 64 NW3 29.87S New Haven PTCLDY 45 29 53 N8 29.86S Chester N/A 45 30 57 NW6 29.86S Groton CLOUDY 45 29 53 N9 29.85R Wilimantic CLEAR 44 26 49 W3 29.87R IN RI CITY SKY/WX TMP DP RH WIND PRES REMARKS Providence PTCLDY 45 27 49 NW6 29.85R Block Island MOCLDY 41 37 86 NW7 29.87R Westerly PTCLDY 46 29 51 NW7 29.86R IN MA CITY SKY/WX TMP DP RH WIND PRES REMARKS Boston PTCLDY 45 26 47 W13G24 29.82S Worcester CLEAR 38 21 50 W12 29.82S WCI 30 Westfield CLEAR 33 27 78 CALM 29.85S Provincetown CLEAR 37 33 85 SW7 29.81F WCI 32 Nantucket PTCLDY 39 34 82 SW12 29.83S WCI 32 $$ ANZ330-335-338-340-345-350-353-355-220400- COASTAL MARINE OBSERVATIONS STATION/POSITION TIME SKY/WX TEMP WIND PRES VSBY WAVE AIR SEA DIR/SP/G HT/PER (UTC) (F) (DEG/KT/KT) (MB) (MI) (FT/S) NY HARB ENTRANCE 0150 47 43 240/ 8/ 8 1011.8 2/11 20 S FIRE ISLAND 0150 43 41 220/ 8/ 10 1011.4 3/11 GREAT SOUTH BAY NOT AVBL 23 SSW MONTAUK P 0150 44 42 1011.3 3/11 15 E BARNEGAT LI 0230 43 N/A 3/11 HUDSON CANYON 0150 47 47 230/ 8/ 8 1012.4 3/11 KINGS POINT 0236 51 39 1011.0 EXECUTION ROCKS NOT AVBL CENTRAL LI SOUND 0230 43 300/ 8/ 10 N/A 1 EASTERN LI SOUND NOT AVBL ROBBINS REEF 0236 52 270/ 5/ 6 1011.5 $$ >>>>>>>>>>>>>>>>>>>>>>>>>>>> KEY <<<<<<<<<<<<<<<<<<<<<<<<<<< > < > SKY/WX - Sky Condition/Present Weather < > TMP - Temperature in Fahrenheit < > DP - Dew Point in Fahrenheit < > RH - Relative Humidity in Percent < > WIND - Direction (from) and Speed in MPH < > PRES - Mean Sea Level Pressure (inches of Hg) < > WCI - Wind Chill Index < > VSB - VISIBILITY IN MILES < > HX - HEAT INDEX < > TC - TEMPERATURE IN CELSIUS < > VRB - VARIABLE WIND DIRECTION < > < >>>>>>>>>>>>>>>>>>>>>>>>>>>> KEY <<<<<<<<<<<<<<<<<<<<<<<<<<<

USA.gov is the U.S. government's official web portal to all federal, state and local government web resources and services.